Location: Guzzlers Gulch
(38.2722°N, 99.9037°W)
Time: 11:41:58
(UTC+00:00)

Daily predictions for brighter satellites

Satellite Brightness Start Highest point End
(mag) Time Altitude Azimuth Time Altitude Azimuth Time Altitude Azimuth
Cosmos 1782 3.0 12:00:38 10° N 12:04:36 71° E 12:08:31 10° SSE
Cosmos 2098 Rocket 3.5 12:01:35 10° SSE 12:04:47 49° E 12:08:42 10° NNE
Cosmos 1943 Rocket 2.2 12:01:23 10° SW 12:06:56 56° WNW 12:12:31 10° NNE
CZ-2C R/B 2.6 12:01:43 10° S 12:07:17 81° WSW 12:12:46 10° NNW
Envisat 3.0 12:02:27 10° N 12:07:27 58° WNW 12:12:24 10° SSW
Cosmos 2034 Rocket 4.2 12:02:31 10° NNW 12:08:25 47° W 12:14:21 10° SSW
YAOGAN 6 3.1 12:06:29 10° N 12:10:12 36° W 12:13:15 10° SW
Cosmos 921 Rocket 4.3 12:06:30 10° N 12:10:39 40° ENE 12:14:50 10° SE
Gbstr 26 Del rocket 3.4 12:09:11 25° NNW 12:11:14 51° NE 12:15:31 10° ESE
Landsat 5 3.6 12:08:18 10° SSE 12:12:48 86° WSW 12:17:20 10° NNW
Cosmos 2278 Rocket 4.2 12:16:28 10° NNW 12:16:28 10° NNW 12:16:42 10° NNW
COSMO-SKYMED 1 2.5 12:10:34 10° S 12:14:50 61° W 12:19:09 10° NNW
Cosmos 2344 4.1 12:10:43 20° W 12:14:56 35° NW 12:21:55 10° NNE
NOAA 11 4.5 12:10:28 10° NNE 12:15:56 72° ESE 12:21:24 10° S
Meteor 1-26 Rocket 4.2 12:10:42 10° NNW 12:16:40 78° W 12:22:26 10° S
Meteor 1-31 Rocket 2.9 12:13:26 10° N 12:17:11 49° WNW 12:20:57 10° SSW
Meteor 2-13 Rocket 4.4 12:12:00 10° SSW 12:18:06 75° W 12:24:14 10° N
Cosmos 1812 3.4 12:14:32 10° N 12:18:19 56° E 12:22:05 10° SSE
FALCON 9 DEB 4.0 12:19:15 24° NNW 12:19:15 24° NNW 12:21:23 10° NNE
Cosmos 1151 Rocket 3.7 12:16:39 10° N 12:20:59 57° E 12:25:16 10° SSE
Cosmos 1570 Rocket 4.0 12:16:48 10° NNW 12:21:55 62° WSW 12:27:05 10° S
Cosmos 968 Rocket 3.5 12:19:10 10° SSW 12:24:16 58° WNW 12:29:21 10° N
Cosmos 2279 Rocket 4.4 12:18:13 10° N 12:24:23 66° E 12:30:31 10° SSE
Hubble Space Telescope 2.8 12:21:37 10° SW 12:24:35 19° S 12:27:34 10° SE
Cosmos 1933 3.8 12:23:21 15° NNW 12:26:13 36° W 12:29:53 10° SSW
Tsikada Rocket 4.4 12:23:20 10° SW 12:29:02 39° WNW 12:34:51 10° N
Cosmos 1634 Rocket 4.0 12:28:11 10° NNW 12:34:23 64° W 12:40:32 10° S
DMSP B5D2-2 4.3 12:30:55 10° SSE 12:36:07 76° ENE 12:41:20 10° N
IRAS Rocket 4.3 12:32:22 10° SSE 12:37:54 88° ENE 12:43:26 10° NNW
Cosmos 1867 3.6 12:33:45 10° NW 12:39:13 74° WSW 12:44:37 10° SSE
H-2A R/B 4.4 12:39:50 10° NE 12:43:55 26° E 12:47:59 10° SSE
Cosmos 2263 4.2 12:39:05 10° SSW 12:44:45 87° WNW 12:50:30 10° NNE
CENTAUR R/B 3.3 12:41:41 10° WSW 12:46:51 30° NW 12:52:53 10° NNE
NOSS 3-2 (A) 4.5 12:43:08 12° W 12:47:13 23° NW 12:52:13 10° NNE
H-2A R/B 4.3 12:45:40 10° NW 12:47:44 15° WNW 12:49:49 10° WSW
SMAP 3.7 12:43:35 10° NNE 12:48:12 61° E 12:52:47 10° S
Cosmos 2208 Rocket 4.5 12:44:04 10° NNW 12:49:12 44° WSW 12:54:16 10° S
NOSS 3-2 (C) 3.9 12:46:48 10° WSW 12:51:50 35° NW 12:57:33 10° NNE
CZ-4C R/B 3.7 12:50:35 10° SSW 12:53:23 28° W 12:56:10 10° NW
Cosmos 1939 Rocket 2.8 12:50:32 10° NNE 12:54:30 90° WNW 12:58:22 10° SSW
Meteor PRIRODA 3.8 12:51:41 10° N 12:55:09 45° WNW 12:58:36 10° SSW
Cosmos 1515 Rocket 4.4 12:53:25 10° N 12:57:43 53° E 13:01:57 10° SSE
FALCON 9 DEB 4.4 12:56:38 10° W 12:59:23 23° NNW 13:02:11 10° NNE
NOAA 12 4.1 12:55:41 10° N 13:00:56 69° WNW 13:06:08 10° SSW
Cosmos 2180 Rocket 4.5 12:54:58 10° N 13:01:10 83° W 13:07:17 10° S
Cosmos 1503 Rocket 4.0 13:00:34 10° SSW 13:05:47 74° WNW 13:11:06 10° NNE
Cosmos 2369 Rocket 2.6 13:02:05 10° SW 13:07:18 40° WNW 13:12:34 10° N
ATLAS 3B R/B 4.4 13:04:10 10° S 13:10:02 38° ESE 13:16:06 10° NE
SJ 16-02 2.9 13:07:05 10° S 13:11:13 42° ESE 13:15:22 10° NNE
FALCON 9 R/B 3.6 13:12:34 10° W 13:29:45 59° SSW 13:34:40 10° ESE
SL-08 R/B 4.1 23:39:17 10° N 23:43:54 54° WNW 23:48:25 10° SSW
ATLAS CENTAUR R/B 3.7 23:44:19 10° W 23:47:16 19° NW 23:50:22 10° N
Cosmos 1766 Rocket 3.9 23:44:46 10° NNW 23:49:07 73° W 23:53:27 10° S
SMAP 3.2 23:45:00 10° SSE 23:49:29 51° ENE 23:54:00 10° N
Cosmos 2221 2.4 23:47:02 10° S 23:51:17 79° E 23:55:34 10° N
Cosmos 2034 Rocket 4.1 23:45:33 10° S 23:51:34 59° E 23:57:36 10° NNE
Cosmos 1777 Rocket 4.2 23:47:00 10° NNW 23:52:17 79° WSW 23:57:34 10° SSE
Cosmos 1833 Rocket 3.4 23:47:23 10° SSE 23:52:20 33° ESE 23:57:17 10° NE
